Temp
54 53 52 51 51 50 49 49 47 44 43 40 38 39 40 41 41 41 41 41 40 40 41 40 39 41 40 40 40 39 38 38 38 43 45 48 52 53 55 57 61 60 58
54 53 51 50 50 49 48 48 48 44 44 40 38 39 40 39 39 39 38 39 39 38 38 39 38 40 38 40 40 38 38 39 38 39 43 46 49 52 53 54 59 65 63
54 53 50 49 48 48 48 48 48 46 43 41 38 38 38 38 38 39 38 39 39 38 38 37 37 37 36 37 39 37 38 40 41 41 42 46 48 50 53 54 56 64 66
54 52 49 48 48 48 48 48 47 48 44 42 38 38 39 38 38 38 38 38 38 38 38 38 37 36 35 36 38 37 37 37 39 41 43 44 47 50 50 47 52 63 62
52 51 48 49 49 48 48 48 47 47 47 44 40 38 39 38 37 37 37 37 37 36 37 38 38 37 37 37 37 35 35 35 35 39 39 41 41 42 41 43 46 50 62
52 50 50 49 49 48 48 47 47 46 46 46 44 40 39 38 35 36 36 37 36 35 35 35 38 36 35 37 39 36 35 32 33 35 37 35 37 38 40 41 43 46 57
51 50 49 49 48 48 48 47 46 46 46 45 44 44 42 37 35 35 35 38 35 35 35 34 35 36 34 37 39 39 37 35 31 35 34 34 35 36 38 39 41 43 47
50 50 49 49 48 48 47 46 46 46 45 44 44 43 43 38 34 34 36 41 37 37 35 34 33 33 33 35 38 38 38 36 35 35 35 35 36 36 37 39 40 43 46
49 48 49 48 47 47 46 45 46 46 45 45 44 43 41 40 35 34 39 41 39 37 37 36 34 33 33 34 35 35 36 36 38 37 37 37 36 36 37 39 37 41 47
48 48 49 48 47 46 45 45 46 46 45 45 44 43 40 41 34 34 36 39 39 38 37 37 34 34 33 34 34 33 32 33 35 36 35 37 37 37 36 37 38 37 39
50 49 48 48 47 47 46 46 46 45 45 44 44 43 43 38 39 35 35 37 36 36 35 35 36 34 34 34 34 33 32 35 35 37 34 35 36 36 35 36 37 37 35
50 49 48 48 48 48 46 46 45 45 43 42 42 41 41 41 36 36 35 34 34 37 34 35 36 35 36 35 35 34 34 35 35 35 34 33 33 33 34 35 37 37 38
50 48 48 47 48 47 46 44 42 43 41 40 39 38 38 39 37 34 35 35 35 37 37 35 35 35 36 36 34 34 34 35 33 32 31 32 33 34 36 35 36 36 37
49 48 49 46 46 46 45 44 40 37 37 37 37 35 35 35 33 33 34 36 36 37 37 37 35 34 35 35 36 36 36 35 33 32 31 33 35 36 35 36 34 34 34
50 49 48 48 47 45 40 39 39 34 32 33 32 35 30 28 28 30 31 32 34 34 36 36 34 34 34 35 35 35 35 36 34 33 32 32 33 34 35 37 36 36 34
49 49 47 47 47 47 44 37 30 30 30 29 29 29 33 29 29 30 32 32 34 34 36 33 32 32 33 34 34 34 34 34 35 35 34 33 32 33 34 36 36 36 35
50 49 47 45 47 44 43 41 38 31 30 30 30 28 28 28 30 31 33 34 34 36 34 33 32 32 33 33 34 34 32 34 35 35 34 32 34 33 34 34 34 34 35
50 35 48 46 45 44 41 38 37 34 32 32 30 30 29 29 31 32 33 36 35 35 35 33 32 33 33 33 33 32 32 32 33 34 33 32 33 33 32 32 33 33 35
47 46 45 44 42 39 39 38 37 37 35 35 37 33 34 31 33 33 33 34 33 33 34 33 33 33 33 33 32 32 31 31 31 31 32 31 31 33 32 32 33 32 33
45 37 40 42 39 40 40 38 37 37 37 37 35 33 35 36 33 32 33 32 33 33 33 33 33 33 32 32 32 31 31 31 31 31 31 31 31 34 32 32 32 31 32
43 41 38 43 41 41 40 38 38 37 36 36 34 29 25 34 33 33 32 32 32 32 32 33 32 32 32 32 31 30 29 29 29 30 31 31 31 31 33 33 32 32 31
44 42 41 42 42 40 40 40 39 37 36 36 35 31 28 34 34 33 32 30 31 33 33 32 32 31 31 30 30 29 28 26 27 27 29 30 31 31 31 31 31 30 30
46 44 43 43 43 39 39 40 39 37 36 36 35 33 33 32 32 33 31 30 31 31 31 31 29 29 29 30 30 29 26 25 26 26 27 29 29 29 30 29 29 29 28
46 44 43 43 41 40 39 37 39 36 37 35 32 33 32 31 30 28 29 29 29 29 28 28 28 25 26 26 28 28 26 23 25 25 26 28 28 28 28 28 28 28 27
46 44 43 43 40 37 36 37 37 36 34 33 32 32 33 32 31 30 29 29 28 28 27 27 27 25 24 23 23 23 20 19 21 19 27 29 27 26 26 27 25 28 26
46 45 44 43 40 36 35 33 34 33 32 32 32 32 32 32 32 31 30 29 28 28 27 28 27 23 23 27 24 20 19 19 20 18 21 28 26 25 24 25 24 26 25
MSLP
1027.74 1027.91 1027.95 1027.91 1027.77 1027.56 1027.32 1027.03 1027.09 1027.06 1026.80 1026.82 1026.58 1025.58 1024.69 1023.85 1023.08 1022.22 1021.42 1020.77 1020.27 1019.82 1019.18 1018.70 1018.21 1017.58 1016.64 1015.95 1015.15 1014.86 1014.03 1013.56 1013.04 1012.36 1011.58 1011.34 1010.47 1010.20 1009.53 1009.59 1009.69 1010.08 1011.41
1027.92 1028.06 1028.16 1028.21 1028.06 1027.86 1027.65 1027.39 1027.22 1027.29 1027.08 1027.21 1026.97 1025.99 1025.22 1024.59 1023.85 1023.09 1022.33 1021.68 1021.04 1020.45 1019.94 1019.33 1018.87 1018.39 1017.71 1016.72 1015.80 1015.24 1014.92 1014.46 1013.80 1013.52 1012.52 1011.82 1010.21 1010.34 1009.21 1009.44 1009.71 1008.73 1010.33
1027.99 1028.14 1028.45 1028.54 1028.39 1028.18 1027.96 1027.73 1027.41 1027.42 1027.48 1027.55 1027.34 1026.51 1025.81 1025.25 1024.64 1023.82 1023.17 1022.45 1021.78 1021.36 1020.81 1020.02 1019.45 1018.81 1018.06 1017.70 1017.07 1016.35 1015.90 1014.98 1014.28 1013.52 1012.87 1011.41 1010.82 1010.32 1009.96 1009.68 1009.24 1008.34 1009.50
1028.15 1028.35 1028.75 1028.86 1028.69 1028.49 1028.21 1027.96 1027.70 1027.35 1027.46 1027.62 1027.70 1027.11 1026.44 1025.93 1025.34 1024.59 1023.75 1023.10 1022.56 1022.05 1021.53 1020.89 1020.33 1019.73 1019.02 1018.20 1017.27 1017.03 1016.29 1015.54 1014.59 1013.73 1012.57 1012.09 1011.57 1011.23 1010.63 1011.43 1009.68 1007.77 1009.14
1028.40 1028.62 1028.96 1029.05 1028.90 1028.77 1028.48 1028.18 1027.92 1027.59 1027.28 1027.35 1027.59 1027.46 1026.94 1026.46 1025.96 1025.22 1024.49 1023.69 1023.18 1022.68 1022.06 1021.32 1020.89 1020.55 1019.69 1018.77 1017.99 1017.62 1016.89 1016.05 1015.23 1014.07 1014.00 1013.07 1012.88 1012.40 1012.93 1012.25 1011.12 1009.62 1008.73
1028.62 1028.90 1029.19 1029.16 1029.02 1028.92 1028.69 1028.43 1028.07 1027.85 1027.57 1027.30 1027.22 1027.37 1027.12 1027.10 1026.77 1025.86 1025.15 1024.41 1023.87 1023.29 1022.84 1022.28 1021.40 1020.96 1020.24 1019.13 1018.61 1018.17 1017.71 1016.74 1016.65 1015.78 1015.47 1015.25 1015.13 1015.05 1014.22 1013.15 1012.23 1010.47 1009.30
1028.81 1029.14 1029.32 1029.28 1029.16 1029.06 1028.91 1028.70 1028.41 1028.13 1027.96 1027.74 1027.62 1027.47 1027.21 1027.84 1027.40 1026.31 1025.43 1024.87 1024.56 1024.16 1023.71 1023.35 1022.24 1021.93 1021.30 1020.01 1018.96 1018.56 1018.52 1018.24 1017.95 1017.28 1016.86 1016.99 1016.55 1015.82 1014.95 1014.15 1013.54 1012.82 1011.04
1028.99 1029.30 1029.50 1029.47 1029.36 1029.27 1029.18 1028.99 1028.81 1028.49 1028.35 1028.21 1028.14 1028.10 1027.73 1028.33 1028.07 1027.00 1025.59 1024.91 1024.94 1024.69 1024.54 1024.33 1023.92 1023.11 1022.13 1021.04 1020.27 1019.76 1019.15 1019.07 1018.86 1018.55 1018.22 1018.23 1017.34 1016.57 1015.87 1015.37 1014.47 1013.56 1011.38
1029.16 1029.50 1029.70 1029.73 1029.62 1029.56 1029.50 1029.38 1029.24 1028.98 1028.77 1028.64 1028.62 1028.60 1028.60 1028.46 1028.62 1027.91 1026.17 1025.46 1025.20 1025.18 1025.06 1024.80 1024.68 1023.99 1023.38 1022.38 1021.33 1020.34 1020.06 1019.63 1019.13 1019.17 1018.86 1018.27 1017.65 1017.00 1016.49 1015.87 1015.38 1014.14 1012.76
1029.38 1029.72 1029.89 1030.01 1029.94 1029.88 1029.88 1029.80 1029.61 1029.42 1029.27 1029.09 1029.03 1029.09 1029.08 1028.90 1029.39 1028.75 1027.81 1026.75 1025.90 1025.62 1025.62 1025.38 1025.54 1025.03 1024.38 1023.23 1022.44 1022.04 1021.43 1020.94 1020.26 1019.60 1019.03 1018.40 1017.96 1017.49 1017.32 1017.03 1016.28 1016.05 1015.55
1029.53 1029.79 1030.03 1030.20 1030.25 1030.26 1030.25 1030.29 1030.06 1029.93 1029.79 1029.58 1029.41 1029.48 1029.30 1029.71 1029.32 1029.44 1028.98 1028.01 1027.34 1026.72 1026.43 1026.05 1025.75 1025.34 1024.89 1024.29 1023.83 1023.43 1022.99 1022.10 1021.32 1020.66 1020.15 1019.74 1019.03 1018.81 1018.52 1018.36 1017.72 1017.49 1017.22
1029.60 1029.85 1030.10 1030.44 1030.51 1030.52 1030.58 1030.59 1030.56 1030.40 1030.27 1030.17 1029.95 1029.98 1030.00 1029.90 1030.21 1030.03 1029.58 1029.26 1028.72 1027.69 1027.49 1027.17 1026.51 1025.97 1025.41 1025.16 1024.59 1024.16 1023.29 1022.65 1022.12 1021.42 1021.01 1020.60 1020.13 1020.19 1020.01 1019.58 1018.99 1018.65 1018.33
1029.67 1029.97 1030.31 1030.59 1030.75 1030.94 1031.02 1031.18 1031.39 1031.29 1031.14 1031.07 1030.86 1030.89 1030.81 1030.89 1030.89 1030.79 1030.17 1029.70 1029.23 1028.54 1028.29 1028.14 1027.46 1026.70 1025.92 1025.24 1025.03 1024.72 1024.08 1023.55 1023.17 1022.74 1022.61 1022.13 1022.06 1021.74 1020.99 1020.31 1019.56 1019.24 1018.74
1029.64 1030.04 1030.36 1030.77 1030.87 1031.26 1031.70 1031.95 1032.44 1032.67 1032.49 1032.47 1032.23 1032.09 1032.10 1032.16 1032.30 1031.96 1031.28 1030.36 1029.73 1029.24 1028.66 1028.40 1028.06 1027.55 1026.91 1026.40 1025.77 1025.39 1025.07 1024.81 1024.49 1024.25 1024.11 1023.54 1022.89 1022.14 1021.52 1021.15 1020.67 1020.24 1019.77
1029.65 1030.16 1030.53 1030.81 1031.00 1031.65 1032.95 1033.62 1033.42 1034.57 1034.74 1034.16 1034.09 1033.48 1033.63 1033.54 1033.76 1033.47 1032.68 1031.80 1031.05 1030.25 1029.44 1029.11 1028.70 1027.98 1027.49 1027.21 1026.78 1026.62 1026.34 1025.80 1025.44 1025.41 1024.99 1024.39 1023.82 1023.35 1022.66 1022.34 1021.78 1021.33 1020.90
1029.63 1030.07 1030.58 1030.92 1031.33 1031.63 1032.31 1033.94 1035.16 1035.25 1035.42 1035.34 1035.31 1035.04 1034.33 1034.81 1034.27 1033.52 1032.91 1032.27 1031.42 1030.62 1029.86 1029.59 1029.37 1029.01 1028.56 1028.18 1027.72 1027.59 1027.43 1027.05 1026.77 1026.43 1026.16 1025.67 1025.22 1024.60 1023.96 1023.68 1023.13 1022.48 1021.97
1029.45 1030.09 1030.88 1031.15 1031.41 1031.99 1032.53 1033.00 1033.78 1035.31 1035.48 1035.50 1035.40 1035.51 1035.35 1035.00 1034.41 1033.66 1032.78 1032.21 1031.78 1030.82 1030.70 1030.61 1030.40 1030.09 1029.86 1029.75 1029.42 1029.02 1028.58 1028.39 1028.11 1027.59 1027.36 1026.82 1026.10 1025.59 1025.09 1024.83 1024.42 1023.81 1023.25
1029.75 1030.60 1030.79 1031.31 1031.88 1032.31 1032.85 1033.51 1033.94 1034.37 1034.76 1034.95 1035.29 1035.17 1035.25 1035.03 1034.56 1033.91 1032.99 1032.06 1031.84 1031.61 1031.55 1031.51 1031.37 1031.07 1030.68 1030.54 1030.43 1030.29 1030.19 1030.04 1029.32 1028.85 1028.38 1028.21 1027.60 1026.90 1026.40 1026.00 1025.51 1025.09 1024.23
1030.13 1030.79 1031.32 1031.91 1032.44 1032.93 1033.28 1033.60 1033.85 1034.05 1034.23 1034.30 1034.19 1034.65 1034.44 1034.69 1034.40 1034.22 1033.73 1033.05 1032.79 1032.59 1032.43 1032.40 1032.36 1032.19 1032.03 1031.74 1031.55 1031.32 1031.05 1030.65 1030.36 1029.74 1029.47 1029.24 1028.49 1027.81 1027.55 1027.23 1026.85 1026.26 1025.38
1030.50 1031.18 1031.70 1032.15 1032.74 1032.89 1033.16 1033.37 1033.58 1033.68 1033.86 1034.06 1034.37 1034.75 1034.52 1034.15 1034.23 1034.23 1034.23 1034.11 1033.77 1033.67 1033.43 1033.26 1033.20 1033.12 1032.93 1032.67 1032.37 1032.15 1031.73 1031.47 1031.28 1030.93 1030.56 1030.46 1029.51 1028.86 1028.68 1028.28 1027.67 1027.03 1026.57
1030.53 1031.34 1031.61 1031.81 1032.19 1032.47 1032.75 1033.03 1033.32 1033.61 1033.82 1034.02 1034.67 1035.66 1036.08 1035.05 1034.63 1034.54 1034.58 1034.62 1034.43 1034.32 1034.28 1034.05 1034.03 1034.01 1033.80 1033.62 1033.37 1033.14 1032.95 1032.66 1032.35 1031.95 1031.30 1030.65 1030.21 1029.92 1029.75 1028.99 1028.55 1028.24 1028.02
1029.85 1030.62 1031.11 1031.22 1031.59 1032.03 1032.32 1032.60 1033.00 1033.39 1033.71 1034.07 1034.62 1035.46 1035.62 1035.14 1034.90 1034.86 1035.00 1035.23 1035.22 1034.89 1034.81 1034.78 1034.63 1034.63 1034.57 1034.42 1034.20 1034.04 1033.82 1033.73 1033.42 1033.06 1032.19 1031.55 1031.10 1030.99 1030.32 1029.78 1029.39 1029.04 1028.86
1029.15 1029.72 1030.26 1030.57 1031.04 1031.61 1032.09 1032.21 1032.60 1033.05 1033.48 1033.91 1034.30 1034.84 1035.12 1035.06 1035.10 1035.05 1035.21 1035.34 1035.24 1035.35 1035.46 1035.35 1035.37 1035.32 1035.37 1035.11 1034.93 1034.75 1034.70 1034.64 1034.34 1034.16 1033.33 1032.59 1032.09 1031.54 1030.86 1030.62 1030.39 1030.02 1030.02
1028.61 1029.11 1029.54 1029.93 1030.60 1031.12 1031.54 1032.04 1032.38 1032.82 1033.10 1033.60 1034.13 1034.38 1034.64 1034.85 1035.02 1035.29 1035.44 1035.61 1035.70 1035.78 1035.81 1035.72 1035.69 1035.96 1035.90 1035.77 1035.59 1035.42 1035.56 1035.67 1035.18 1034.70 1033.98 1033.18 1032.78 1032.37 1031.99 1031.51 1031.19 1030.90 1030.73
1027.81 1028.29 1028.67 1029.17 1029.92 1030.64 1031.15 1031.68 1032.09 1032.41 1032.94 1033.36 1033.69 1033.89 1034.01 1034.31 1034.58 1034.88 1035.11 1035.34 1035.52 1035.60 1035.78 1035.90 1035.93 1036.01 1036.06 1036.14 1036.07 1036.04 1036.18 1036.05 1035.70 1035.52 1034.44 1033.70 1033.50 1033.10 1032.95 1032.51 1032.38 1031.66 1031.39
1026.90 1027.58 1028.32 1029.00 1029.65 1030.54 1031.06 1031.44 1031.64 1032.05 1032.40 1032.74 1032.97 1033.18 1033.47 1033.75 1033.88 1034.22 1034.58 1034.84 1035.03 1035.16 1035.35 1035.43 1035.62 1035.96 1036.04 1035.72 1035.85 1036.08 1036.08 1035.98 1035.78 1035.65 1035.19 1034.16 1033.94 1033.64 1033.62 1033.10 1032.79 1032.24 1031.97
Wind_Speed
9 10 11 12 12 11 11 12 13 12 13 14 14 15 15 16 16 16 15 15 14 14 15 15 15 15 11 9 8 7 6 6 5 4 4 10 2 6 6 2 7 13 12
8 9 11 11 11 11 12 13 13 14 14 14 12 14 15 16 16 15 15 14 14 15 15 15 16 12 15 13 9 11 9 7 5 8 5 5 4 7 7 7 7 14 12
8 9 11 11 11 11 12 12 12 13 14 14 13 15 15 16 17 15 15 15 14 14 15 15 16 17 15 12 10 9 9 7 4 4 4 5 2 5 5 5 10 18 13
8 9 10 10 10 10 11 11 12 12 12 13 12 13 14 17 17 16 15 14 14 14 14 14 14 17 16 15 12 11 10 9 8 5 6 6 5 5 7 7 7 9 11
8 9 9 8 9 10 10 11 11 12 12 12 12 12 13 15 14 17 15 14 14 15 15 16 14 22 26 20 10 11 12 10 8 8 7 7 7 8 9 7 5 10 11
8 8 8 8 9 9 10 10 10 11 12 13 13 12 12 13 25 24 20 12 14 14 15 16 16 22 22 23 18 13 15 13 11 10 8 9 10 9 8 9 8 6 5
8 8 8 8 9 9 10 10 11 11 11 12 13 14 13 17 26 26 23 12 11 12 14 16 15 15 21 16 16 16 15 17 13 10 11 9 7 10 10 9 8 6 6
7 7 8 8 9 9 10 10 11 10 11 10 13 14 13 14 24 28 23 14 10 12 13 17 17 17 21 19 15 14 15 12 12 9 10 8 8 10 10 8 8 9 7
7 7 7 8 9 10 10 10 10 10 10 10 10 13 15 14 24 26 20 13 12 13 13 15 17 17 27 27 17 16 15 14 11 17 17 16 16 19 17 6 8 8 4
6 6 6 7 8 9 9 10 9 9 10 9 10 12 12 15 22 25 23 11 13 11 13 14 22 18 26 26 17 16 15 14 14 13 13 15 16 16 20 12 9 8 4
6 5 6 6 6 8 8 8 9 9 9 10 10 11 13 13 17 22 23 13 11 10 11 11 12 21 21 24 22 15 15 12 13 12 10 10 12 13 11 11 11 8 8
6 5 6 6 6 6 8 8 9 9 9 10 10 10 10 14 17 20 21 17 19 11 12 10 11 19 17 21 17 21 20 14 11 11 11 12 12 12 11 10 11 8 7
6 5 5 5 5 6 7 8 8 9 9 9 9 9 10 11 12 20 21 18 16 10 9 12 16 17 18 15 21 21 17 12 12 12 12 12 10 7 9 11 11 9 7
6 5 5 5 5 7 6 7 8 9 8 8 9 9 9 10 12 12 12 12 15 12 11 10 11 11 13 12 13 14 12 11 12 12 11 11 10 11 11 10 9 10 7
6 5 4 4 4 7 9 8 7 9 9 8 8 8 8 9 10 13 13 11 11 11 8 9 10 10 11 11 11 12 11 11 12 12 12 12 12 12 12 12 11 9 10
6 4 4 4 3 3 5 8 11 10 10 10 12 9 6 11 15 14 13 14 18 12 9 9 10 10 11 12 12 12 12 13 12 11 11 11 11 12 11 10 11 11 11
6 6 5 2 3 4 3 3 4 6 8 9 9 10 10 11 15 16 16 7 10 11 10 10 9 10 11 11 11 12 12 12 14 11 11 12 11 11 12 11 11 11 10
6 5 5 4 4 3 4 4 4 4 3 3 5 4 5 7 11 15 16 8 9 10 10 10 10 11 11 11 11 11 11 11 11 11 12 11 11 11 11 11 12 12 11
6 5 4 5 4 4 3 3 2 2 2 2 2 1 3 4 6 10 13 8 9 9 9 9 9 9 10 10 10 10 10 10 10 9 11 11 10 10 11 11 11 14 14
7 6 5 5 5 4 3 3 2 2 1 2 3 4 4 4 5 6 7 7 7 8 8 8 9 9 9 9 9 9 10 10 10 10 10 9 10 10 10 11 11 12 12
7 8 6 6 6 5 5 4 3 2 2 1 3 4 5 5 4 5 5 6 6 6 7 7 7 7 8 8 9 9 10 10 11 11 10 10 10 10 10 10 10 10 10
9 9 8 7 7 6 6 5 5 4 3 3 3 4 3 2 3 3 4 4 4 5 5 6 6 6 7 7 8 8 9 9 9 10 11 10 10 10 10 10 10 10 10
10 10 10 8 8 7 6 6 6 5 5 4 3 3 2 1 1 2 2 2 3 3 4 4 5 5 5 6 7 7 8 8 9 8 9 9 9 10 10 10 10 10 11
10 11 10 9 8 8 8 7 6 6 6 6 5 4 4 4 3 2 1 1 1 1 2 2 3 4 4 4 5 6 7 7 8 8 10 9 9 10 9 10 11 11 10
10 10 9 9 8 7 7 8 7 6 6 6 6 6 6 5 6 5 4 3 2 2 1 1 1 1 2 3 4 6 6 8 8 9 7 8 9 10 9 8 9 9 11
11 12 10 8 8 8 7 7 7 7 7 7 7 6 7 7 7 6 6 5 4 4 3 3 2 2 2 3 2 3 5 7 7 9 8 6 7 7 8 9 12 8 10
Wind_Direction
24 17 15 12 4 8 8 9 11 7 12 18 358 354 360 1 360 358 360 4 5 7 6 6 6 1 0 356 353 2 355 353 344 341 319 314 314 22 7 332 256 174 188
27 20 19 14 8 9 11 10 16 14 15 20 358 360 4 6 1 2 360 3 4 11 4 3 9 2 5 2 355 360 351 345 343 312 309 293 20 344 19 333 298 177 186
27 25 24 16 11 11 11 13 13 20 11 23 3 5 6 8 8 360 358 4 5 12 8 2 8 4 4 2 360 2 347 340 328 313 301 334 319 345 341 354 301 178 180
32 32 28 18 13 10 10 13 11 17 25 24 10 9 8 13 10 6 0 6 10 10 8 4 14 8 2 356 4 6 356 350 2 342 14 354 11 1 28 346 337 158 163
36 34 29 21 21 11 12 14 17 12 18 33 22 15 14 17 6 4 358 9 13 11 9 5 15 15 5 359 358 16 10 5 4 7 14 15 7 17 359 346 311 315 145
40 37 30 22 22 16 13 16 16 16 15 16 25 30 19 17 4 1 360 17 12 13 13 5 6 15 2 355 9 46 33 19 8 17 12 15 4 354 345 350 344 324 144
46 41 30 24 25 21 18 17 17 21 16 18 19 14 31 22 8 360 351 33 17 18 18 12 7 12 5 354 10 29 37 30 22 15 24 13 348 350 346 350 333 323 317
54 44 34 26 28 25 24 21 18 19 23 19 20 22 15 36 15 2 346 37 28 28 24 24 11 10 10 3 13 21 27 27 31 25 24 6 4 360 355 323 308 293 284
64 47 40 29 28 28 27 23 20 19 24 23 25 24 15 39 19 12 359 19 29 32 26 31 17 16 12 10 21 20 20 18 29 29 25 23 17 18 13 1 14 354 337
79 62 50 38 33 30 29 23 22 24 21 23 27 25 35 17 32 19 7 18 20 26 29 22 25 19 21 24 24 22 15 12 8 19 18 18 19 22 19 15 14 17 343
114 91 63 50 38 35 32 30 20 23 28 21 26 30 23 42 25 18 21 14 358 19 21 16 17 11 27 23 25 22 15 6 16 22 27 21 24 21 19 11 17 29 16
125 108 76 57 35 38 36 33 26 30 25 23 25 27 25 19 32 11 17 23 1 25 26 15 11 12 27 29 27 20 20 21 22 25 23 21 20 17 12 4 18 20 30
138 117 93 82 57 48 39 40 32 25 27 21 23 22 22 21 12 10 7 11 17 14 29 13 13 23 23 27 28 25 23 22 23 26 20 20 12 6 11 17 15 17 26
142 125 114 64 49 60 49 43 46 29 22 28 19 24 15 19 14 5 5 4 8 14 16 26 15 19 30 26 28 28 24 25 23 27 19 12 11 13 23 18 15 10 17
141 127 108 91 77 92 65 31 57 52 32 24 16 24 19 16 10 4 2 4 358 346 6 25 21 20 23 23 28 29 24 21 29 22 21 15 19 13 20 14 19 17 27
148 156 97 105 85 69 108 112 78 86 72 61 50 34 40 29 9 7 3 358 360 346 29 27 22 20 24 22 20 22 24 22 20 23 24 17 17 19 17 18 16 18 20
160 131 122 146 110 87 71 49 89 129 103 81 63 54 40 21 14 5 353 337 10 18 38 31 25 22 26 27 25 24 23 21 16 25 24 17 13 18 16 20 16 14 17
131 46 139 113 104 121 85 66 56 47 44 57 110 60 58 32 29 13 358 22 34 35 37 34 29 23 20 24 24 26 25 22 19 20 25 19 14 18 18 16 17 11 15
138 155 125 117 104 91 111 104 92 82 58 39 52 179 100 155 46 42 20 35 34 31 31 33 30 28 26 24 22 19 24 24 17 19 21 19 9 18 22 20 14 16 13
141 118 132 145 146 159 157 156 155 155 115 52 45 20 358 39 36 37 42 33 36 33 26 32 28 26 25 21 23 18 18 19 21 19 20 18 10 18 21 17 15 13 17
151 158 172 166 172 175 178 184 182 177 173 125 90 53 353 339 34 40 43 33 34 36 28 26 30 27 23 24 24 22 22 17 18 13 14 15 17 17 14 18 20 17 14
164 167 183 184 179 182 188 185 187 188 183 176 143 128 282 326 40 46 50 38 21 32 29 32 27 31 24 20 18 19 23 20 18 10 7 7 13 13 12 21 17 17 13
173 177 184 187 188 175 186 191 188 191 190 189 179 177 184 135 35 50 74 45 44 39 30 29 37 27 20 21 16 19 16 12 3 8 355 6 9 7 8 14 11 15 10
180 184 188 190 187 187 192 199 198 197 193 184 192 196 200 187 195 192 206 149 71 49 39 38 45 38 23 11 21 12 24 6 349 355 338 4 7 8 7 12 6 8 5
185 187 191 190 185 193 185 194 202 190 194 194 199 208 198 200 198 203 203 204 198 209 167 254 12 50 62 6 9 6 8 355 349 340 334 4 5 6 6 7 2 0 7
187 192 191 193 182 181 190 194 196 192 198 199 205 204 210 205 210 198 204 209 208 209 214 204 193 241 275 260 56 7 340 345 346 341 317 357 2 3 359 352 360 353 2